Location: Caltech
(34.1382°N, 118.1253°W)
Time: 11:45:10
(UTC-07:00)

Cosmos 1975 - Visible Passes

Search period start: 24 June 2018 00:00
Search period end: 04 July 2018 00:00
Orbit: 542 x 564 km, 82.5° (Epoch: 24 June)

Date Brightness Start Highest point End Pass type
(mag) Time Alt. Az. Time Alt. Az. Time Alt. Az.
24 Jun 5.8 04:59:57 10° ESE 05:02:08 14° E 05:04:21 10° NE visible
25 Jun 5.7 04:56:12 10° SE 04:58:44 16° E 05:01:16 10° NE visible
26 Jun 5.6 04:52:32 10° SE 04:55:20 18° E 04:58:08 10° NE visible
27 Jun 5.4 04:48:54 10° SE 04:51:56 21° E 04:54:57 10° NE visible
28 Jun 5.2 04:45:18 10° SE 04:48:31 23° E 04:51:44 10° NE visible
29 Jun 4.9 04:41:45 10° SSE 04:45:07 27° E 04:48:30 10° NNE visible
30 Jun 4.7 04:38:12 10° SSE 04:41:43 30° E 04:45:14 10° NNE visible
01 Jul 4.4 04:34:41 10° SSE 04:38:20 34° E 04:41:57 10° NNE visible
02 Jul 4.1 04:31:12 10° SSE 04:34:55 39° E 04:38:39 10° NNE visible
03 Jul 3.8 04:27:43 10° SSE 04:31:31 45° E 04:35:20 10° NNE visible
